This is the latest recevied weather packets stored in our database for station/object K5WNG. If no packets are shown the sender has not sent any weather packets the latest 10 day(s).
| Time | Temp. | Humidity | Pressure | Rain* | Wind** | Luminosity | Snow |
|---|---|---|---|---|---|---|---|
| 1777656919 | 13.89° C | 99% | 1012.5 hPa | 0.51 mm | - | 141 W/m² | - |
| 1777656619 | 13.89° C | 99% | 1012.7 hPa | 0.51 mm | - | 102 W/m² | - |
| 1777656319 | 14.44° C | 99% | 1012.6 hPa | 0.25 mm | - | 83 W/m² | - |
| 1777656022 | 14.44° C | 99% | 1012.9 hPa | 0.25 mm | - | 63 W/m² | - |
| 1777655731 | 14.44° C | 98% | 1013 hPa | 0.25 mm | - | 59 W/m² | - |
| 1777655422 | 14.44° C | 98% | 1012.6 hPa | 0 mm | - | 88 W/m² | - |
| 1777655119 | 14.44° C | 98% | 1012.2 hPa | 0 mm | - | 108 W/m² | - |
| 1777654828 | 14.44° C | 98% | 1012.1 hPa | 0 mm | - | 168 W/m² | - |
| 1777654520 | 14.44° C | 98% | 1012.2 hPa | 0 mm | - | 126 W/m² | - |
| 1777654220 | 14.44° C | 98% | 1012.3 hPa | 0 mm | - | 177 W/m² | - |
| 1777653920 | 14.44° C | 98% | 1012.3 hPa | 0 mm | - | 158 W/m² | - |
| 1777653623 | 14.44° C | 98% | 1012.4 hPa | 0.51 mm | - | 210 W/m² | - |
| 1777653319 | 14.44° C | 99% | 1012.3 hPa | 0.76 mm | - | 307 W/m² | - |
| 1777653023 | 14.44° C | 99% | 1012.4 hPa | 1.02 mm | - | 197 W/m² | - |
| 1777652720 | 14.44° C | 99% | 1012.5 hPa | 1.02 mm | - | 201 W/m² | - |
| 1777652420 | 14.44° C | 99% | 1012.6 hPa | 1.27 mm | - | 200 W/m² | - |
| 1777652123 | 13.89° C | 99% | 1012.6 hPa | 1.27 mm | - | 138 W/m² | - |
| 1777651820 | 13.89° C | 99% | 1012.5 hPa | 1.52 mm | - | 182 W/m² | - |
| 1777651520 | 13.89° C | 99% | 1012.3 hPa | 1.52 mm | - | 153 W/m² | - |
| 1777651229 | 13.89° C | 99% | 1012 hPa | 1.78 mm | - | 242 W/m² | - |
| 1777650932 | 13.89° C | 99% | 1011.3 hPa | 2.03 mm | - | 136 W/m² | - |
| 1777650632 | 13.89° C | 99% | 1011.2 hPa | 2.03 mm | - | 123 W/m² | - |
| 1777650330 | 13.89° C | 99% | 1011.6 hPa | 1.78 mm | - | 146 W/m² | - |
| 1777650030 | 13.89° C | 99% | 1012 hPa | 1.52 mm | - | 98 W/m² | - |
| 1777649732 | 13.89° C | 99% | 1013.3 hPa | 1.27 mm | - | 39 W/m² | - |
* Rain latest hour (hover to see other rain measurements)
** Current wind speed in m/s (hover to see current wind gust speed)